Precipitable_Water
1.15 1.16 1.09 1.06 1.05 1.05 1.04 1.03 0.97 0.86 0.87 0.91 0.90 1.02 1.01 1.02 0.98 0.93 0.85 0.85 0.87 0.85 0.85 0.81 0.77 0.77 0.71 0.67 0.66 0.65 0.63 0.62 0.59 0.58 0.57 0.56 0.56 0.55
0.99 1.01 1.02 1.02 1.00 1.00 0.99 0.99 0.98 0.92 0.83 0.91 0.92 0.93 0.96 0.95 0.92 0.89 0.87 0.84 0.80 0.78 0.74 0.72 0.71 0.70 0.66 0.64 0.61 0.56 0.55 0.54 0.52 0.52 0.52 0.52 0.51 0.52
0.83 0.84 0.86 0.91 0.92 0.93 0.95 0.95 0.94 0.90 0.82 0.83 0.90 0.91 0.88 0.85 0.85 0.82 0.78 0.75 0.71 0.69 0.64 0.58 0.56 0.54 0.52 0.50 0.49 0.47 0.47 0.45 0.45 0.45 0.45 0.45 0.45 0.46
0.76 0.76 0.78 0.80 0.81 0.84 0.84 0.85 0.85 0.84 0.79 0.73 0.77 0.80 0.77 0.77 0.73 0.69 0.66 0.60 0.54 0.49 0.46 0.44 0.41 0.38 0.38 0.38 0.38 0.38 0.38 0.38 0.38 0.39 0.39 0.40 0.39 0.39
0.78 0.76 0.75 0.76 0.76 0.76 0.77 0.79 0.79 0.79 0.80 0.78 0.73 0.71 0.68 0.63 0.56 0.53 0.50 0.45 0.39 0.34 0.30 0.27 0.29 0.30 0.32 0.33 0.33 0.34 0.34 0.35 0.35 0.35 0.35 0.35 0.34 0.34
0.76 0.76 0.76 0.73 0.70 0.74 0.73 0.77 0.76 0.74 0.72 0.66 0.61 0.58 0.53 0.50 0.46 0.37 0.31 0.29 0.24 0.24 0.25 0.25 0.27 0.28 0.29 0.29 0.29 0.30 0.31 0.31 0.32 0.32 0.32 0.32 0.31 0.31
0.72 0.72 0.72 0.73 0.73 0.73 0.76 0.74 0.69 0.64 0.64 0.59 0.50 0.45 0.40 0.34 0.26 0.25 0.20 0.18 0.18 0.21 0.23 0.25 0.26 0.26 0.27 0.28 0.28 0.28 0.29 0.31 0.31 0.31 0.31 0.31 0.31 0.32
0.66 0.69 0.70 0.72 0.72 0.75 0.73 0.70 0.64 0.55 0.49 0.43 0.37 0.26 0.23 0.22 0.20 0.19 0.17 0.17 0.17 0.26 0.25 0.24 0.27 0.25 0.26 0.28 0.29 0.31 0.32 0.32 0.33 0.32 0.32 0.32 0.32 0.32
0.70 0.70 0.69 0.72 0.71 0.65 0.59 0.54 0.49 0.44 0.34 0.25 0.20 0.19 0.18 0.18 0.17 0.17 0.21 0.21 0.21 0.25 0.25 0.21 0.27 0.26 0.29 0.30 0.31 0.32 0.33 0.34 0.34 0.34 0.35 0.36 0.36 0.36
0.68 0.66 0.62 0.52 0.46 0.41 0.35 0.29 0.28 0.26 0.25 0.23 0.20 0.18 0.17 0.19 0.23 0.24 0.24 0.24 0.24 0.25 0.27 0.21 0.27 0.26 0.29 0.31 0.31 0.32 0.33 0.35 0.35 0.37 0.38 0.39 0.39 0.39
0.27 0.27 0.26 0.25 0.26 0.26 0.23 0.21 0.20 0.18 0.19 0.17 0.17 0.21 0.25 0.27 0.28 0.26 0.22 0.21 0.20 0.23 0.28 0.26 0.27 0.26 0.27 0.28 0.31 0.33 0.34 0.35 0.36 0.38 0.39 0.39 0.40 0.40
0.20 0.21 0.21 0.21 0.21 0.20 0.17 0.16 0.14 0.14 0.15 0.19 0.22 0.24 0.24 0.24 0.26 0.26 0.25 0.22 0.23 0.22 0.28 0.25 0.26 0.27 0.23 0.28 0.30 0.32 0.33 0.35 0.36 0.37 0.39 0.39 0.40 0.39
0.19 0.19 0.20 0.20 0.19 0.18 0.18 0.16 0.15 0.18 0.19 0.22 0.22 0.23 0.25 0.26 0.27 0.29 0.29 0.28 0.25 0.24 0.29 0.30 0.27 0.27 0.27 0.25 0.27 0.30 0.32 0.34 0.36 0.38 0.38 0.38 0.39 0.39
0.18 0.20 0.21 0.20 0.18 0.17 0.17 0.19 0.20 0.22 0.23 0.22 0.23 0.24 0.25 0.26 0.28 0.29 0.30 0.30 0.31 0.30 0.31 0.32 0.29 0.29 0.27 0.25 0.23 0.27 0.30 0.34 0.37 0.37 0.38 0.38 0.39 0.40
0.22 0.22 0.20 0.18 0.18 0.18 0.19 0.20 0.23 0.23 0.23 0.23 0.23 0.24 0.26 0.28 0.29 0.29 0.30 0.31 0.31 0.31 0.31 0.33 0.32 0.31 0.29 0.26 0.25 0.27 0.27 0.30 0.36 0.37 0.38 0.38 0.37 0.38
0.23 0.21 0.19 0.18 0.19 0.20 0.21 0.23 0.24 0.25 0.25 0.24 0.25 0.26 0.28 0.28 0.27 0.29 0.28 0.28 0.27 0.27 0.31 0.33 0.33 0.33 0.29 0.30 0.30 0.28 0.28 0.27 0.33 0.38 0.39 0.38 0.39 0.39
0.22 0.18 0.17 0.17 0.17 0.19 0.22 0.24 0.25 0.26 0.26 0.26 0.26 0.26 0.26 0.27 0.27 0.29 0.29 0.29 0.28 0.28 0.29 0.31 0.33 0.34 0.34 0.32 0.27 0.26 0.25 0.27 0.33 0.38 0.39 0.36 0.38 0.39
0.19 0.17 0.16 0.17 0.18 0.21 0.22 0.24 0.25 0.26 0.27 0.27 0.27 0.27 0.26 0.26 0.26 0.28 0.29 0.29 0.28 0.29 0.29 0.30 0.29 0.30 0.30 0.30 0.32 0.25 0.28 0.30 0.34 0.38 0.39 0.36 0.34 0.38
0.18 0.18 0.17 0.18 0.20 0.23 0.24 0.25 0.25 0.27 0.29 0.28 0.28 0.28 0.27 0.27 0.27 0.27 0.29 0.29 0.30 0.31 0.31 0.31 0.29 0.28 0.24 0.21 0.25 0.32 0.29 0.32 0.36 0.37 0.38 0.37 0.35 0.37
0.19 0.18 0.18 0.20 0.23 0.24 0.25 0.26 0.27 0.28 0.29 0.29 0.28 0.28 0.28 0.28 0.29 0.30 0.31 0.30 0.30 0.30 0.30 0.30 0.28 0.28 0.26 0.24 0.23 0.28 0.36 0.34 0.38 0.37 0.37 0.40 0.41 0.42
0.18 0.18 0.20 0.22 0.25 0.25 0.26 0.27 0.28 0.28 0.29 0.29 0.29 0.30 0.30 0.30 0.30 0.31 0.32 0.31 0.31 0.29 0.27 0.26 0.29 0.33 0.33 0.31 0.25 0.26 0.31 0.39 0.42 0.40 0.40 0.38 0.36 0.36
0.20 0.20 0.21 0.24 0.26 0.26 0.27 0.27 0.27 0.28 0.29 0.29 0.30 0.31 0.31 0.32 0.32 0.32 0.32 0.31 0.30 0.29 0.27 0.28 0.31 0.31 0.30 0.27 0.24 0.25 0.28 0.36 0.42 0.43 0.44 0.43 0.38 0.32
0.21 0.22 0.22 0.23 0.25 0.26 0.26 0.26 0.27 0.28 0.29 0.30 0.31 0.32 0.32 0.32 0.33 0.33 0.33 0.32 0.30 0.28 0.28 0.27 0.28 0.30 0.29 0.28 0.28 0.27 0.29 0.33 0.38 0.38 0.40 0.44 0.45 0.45
Wind_Speed
45 44 44 43 42 42 41 41 40 39 39 39 40 39 40 38 37 34 36 38 41 43 43 43 43 41 41 41 41 42 42 43 43 42 43 43 43 44
42 42 41 41 40 39 39 39 38 38 37 39 39 35 36 33 33 36 41 41 41 41 41 40 41 41 41 42 43 43 42 42 43 43 44 44 45 45
38 38 38 38 38 38 37 37 36 35 36 34 32 35 31 34 37 40 40 39 39 39 39 40 40 41 41 42 43 43 43 44 44 44 45 45 46 46
34 35 34 33 32 32 33 32 32 33 34 35 36 35 36 37 37 37 37 36 37 37 38 39 40 42 42 43 43 44 44 45 45 46 47 47 48 48
29 29 29 29 28 28 27 28 29 29 30 30 31 33 33 33 33 33 33 34 35 36 39 40 41 42 43 43 44 45 46 47 47 48 48 48 48 48
18 21 23 24 25 26 26 25 25 25 27 28 29 28 28 29 30 31 32 34 37 38 40 42 41 40 40 41 43 43 43 44 44 44 44 44 44 43
14 12 14 16 19 20 20 20 22 23 23 23 23 25 26 27 29 31 33 34 35 35 33 34 36 36 37 39 40 40 40 40 41 41 40 39 38 38
11 11 10 10 12 15 15 18 19 19 19 20 22 24 26 28 29 29 29 29 30 31 35 36 37 37 38 38 38 38 39 38 37 36 35 34 34 34
10 10 11 11 13 14 14 15 17 17 20 21 23 25 26 26 25 26 27 29 31 34 35 34 34 34 34 34 34 34 33 32 31 31 31 32 33 33
9 9 9 9 10 12 14 16 18 19 21 22 23 23 23 23 24 25 27 30 31 32 32 30 31 30 29 29 30 27 27 27 28 29 31 31 31 31
11 11 12 13 14 15 17 18 19 20 21 21 21 21 22 23 24 26 27 28 29 29 30 28 27 28 28 26 25 25 27 28 29 29 30 30 31 32
13 14 15 16 17 18 19 19 20 20 19 19 19 21 22 23 25 25 27 27 27 26 25 26 27 26 24 23 24 28 27 28 29 29 30 30 29 29
16 17 18 18 20 20 20 20 20 19 19 19 20 21 22 23 24 26 26 26 25 26 28 27 26 27 25 26 26 27 28 28 29 29 29 28 28 28
18 19 20 21 21 21 20 19 18 18 18 19 21 22 23 24 25 26 27 26 26 27 29 29 27 27 27 28 28 27 28 29 29 28 27 28 28 28
19 21 21 22 21 20 19 19 18 19 19 20 21 22 24 25 26 27 26 25 26 27 28 28 27 27 27 28 28 29 29 28 28 27 27 27 26 25
21 22 22 22 21 20 20 19 19 20 21 21 22 23 25 25 26 26 25 25 26 26 27 28 27 27 28 28 29 30 29 28 28 28 27 26 25 24
23 22 22 22 21 21 20 20 21 21 22 23 23 25 26 26 27 26 25 26 26 27 27 28 28 28 28 29 29 30 30 29 28 28 27 26 25 23
23 23 23 23 22 22 22 22 22 23 24 24 25 26 26 27 27 27 26 26 27 28 29 29 29 28 28 28 30 30 30 28 28 28 26 25 25 24
24 24 24 23 23 23 23 23 24 25 26 27 27 27 28 27 28 27 26 27 29 29 29 29 29 27 28 28 30 29 29 28 28 28 26 25 25 25
24 25 24 24 24 24 25 25 26 27 27 28 28 29 28 28 27 26 26 28 29 29 28 28 27 27 27 29 31 31 29 28 28 28 27 25 25 26
25 25 25 25 25 26 27 28 29 29 30 30 30 30 29 27 26 25 26 28 29 28 27 26 27 29 30 31 29 29 29 29 29 28 27 25 24 25
26 26 27 27 28 29 29 30 31 32 32 32 31 29 27 25 24 24 26 27 27 27 27 27 28 28 29 28 30 31 29 29 29 29 26 25 24 23
28 28 29 29 29 30 31 31 32 33 33 31 28 25 24 23 23 24 25 27 28 28 27 27 28 27 29 30 30 30 31 31 30 27 26 26 27 28
Wind_Direction
268 267 266 266 266 266 266 266 266 268 269 269 274 270 276 273 272 274 279 282 285 287 285 285 284 283 283 283 282 283 283 281 280 278 277 277 276 276
269 267 266 266 266 266 266 266 266 268 270 273 271 276 275 276 275 280 284 285 286 287 286 286 285 284 284 283 283 283 282 281 280 278 277 277 277 276
272 269 267 266 265 265 266 266 266 268 268 270 279 272 278 281 281 284 285 286 287 287 287 287 286 285 285 284 284 284 282 281 280 279 278 278 278 277
275 269 267 266 265 264 264 265 267 269 271 272 274 276 279 281 283 285 286 287 288 289 289 289 288 287 287 286 285 284 283 282 281 280 280 279 278 278
277 271 267 264 264 264 265 265 268 271 273 275 277 278 280 282 284 286 289 290 290 290 291 291 290 289 288 287 286 285 284 283 282 281 280 280 279 278
296 280 268 264 264 263 266 266 270 274 276 277 279 280 281 284 286 289 291 292 293 293 293 292 291 291 290 289 288 287 286 285 284 283 282 281 280 279
315 308 286 271 266 265 264 266 272 277 279 279 282 283 286 289 291 293 294 296 297 297 297 296 296 295 294 293 291 290 289 287 286 285 283 282 281 280
316 310 306 294 284 274 271 273 276 279 282 284 288 290 291 293 295 296 298 301 303 301 303 300 299 298 296 294 293 291 290 289 287 286 284 283 282 281
328 318 304 296 293 284 284 284 286 285 287 290 292 295 296 297 298 301 304 305 305 305 305 304 303 301 300 298 296 294 293 291 289 288 288 286 284 283
339 335 326 314 305 296 293 292 291 292 292 294 297 298 299 301 302 304 307 309 309 310 309 306 307 306 305 302 301 299 297 295 294 293 291 288 286 284
332 326 319 312 308 305 302 300 299 298 297 298 300 301 302 303 305 307 309 311 312 313 315 310 310 310 309 306 303 302 302 300 297 296 294 291 289 287
325 322 320 315 312 309 306 303 302 301 300 300 302 304 306 306 308 309 310 310 311 313 317 317 313 313 312 310 307 306 304 304 302 300 297 295 292 289
323 320 317 316 314 311 308 305 303 301 300 301 303 305 307 310 310 311 311 310 309 309 312 317 313 312 308 308 309 307 307 306 304 303 301 298 295 292
322 320 318 317 315 313 310 307 305 303 303 303 305 307 309 311 310 312 310 307 307 308 311 313 313 311 308 308 308 309 308 308 306 304 302 299 296 295
322 321 320 318 316 313 310 307 305 304 304 305 306 307 309 310 311 312 309 309 310 310 310 312 313 312 310 307 307 308 309 309 307 306 304 300 297 297
324 321 320 318 316 313 310 307 305 304 304 304 305 307 309 311 312 312 309 311 312 313 313 313 313 312 311 309 308 308 309 307 307 306 304 301 298 296
324 323 321 320 317 314 311 308 306 305 305 304 305 307 309 311 311 310 307 309 310 313 314 315 314 313 312 310 310 310 310 309 307 307 305 301 297 297
325 323 322 320 317 314 311 308 306 305 305 304 304 305 306 309 309 308 305 306 308 310 311 313 313 313 314 313 311 311 311 310 310 309 306 302 297 297
324 323 322 320 317 314 311 309 307 306 305 304 304 304 305 305 307 307 305 306 307 308 308 310 311 312 314 316 319 314 313 313 313 309 305 300 297 297
323 322 321 318 317 314 312 310 309 307 305 304 303 302 303 303 304 305 307 308 309 310 309 309 310 311 312 315 317 316 313 313 314 311 306 302 298 297
323 322 320 318 316 314 313 311 310 308 306 304 302 301 301 300 301 303 307 310 312 312 310 309 309 310 312 314 315 316 316 313 312 311 307 303 301 300
322 320 319 317 315 314 313 312 310 309 307 305 302 299 299 298 300 303 308 311 312 312 311 310 311 312 312 314 315 315 317 317 314 310 305 300 299 298
320 319 318 316 315 314 313 312 311 310 309 307 303 300 298 298 301 304 309 312 313 312 311 311 313 313 313 313 315 315 316 317 316 313 309 306 302 300